Overview Statistics Trail Chart Weather Telemetry Raw packets
 

This is the latest recevied weather packets stored in our database for station/object OM5ZU-10. If no packets are shown the sender has not sent any weather packets the latest 10 day(s).

<< 14 15 16 17 18 19 20 >>
Time Temp. Humidity Pressure Rain* Wind** Luminosity Snow
1788228346 15.56° C 90% 1017.6 hPa - - - -
1788227446 16.67° C 87% 1017.4 hPa - - - -
1788226546 16.67° C 87% 1017.5 hPa - - - -
1788225645 17.78° C 83% 1017.5 hPa - - - -
1788224745 18.33° C 82% 1017.4 hPa - - - -
1788223845 18.89° C 76% 1017.2 hPa - - - -
1788222945 18.89° C 82% 1017.4 hPa - - - -
1788222045 20° C 71% 1017.5 hPa - - - -
1788221145 21.11° C 67% 1017.1 hPa - - - -
1788220244 21.67° C 65% 1017.1 hPa - - - -
1788219344 21.67° C 65% 1017 hPa - - - -
1788218444 21.67° C 65% 1016.8 hPa - - - -
1788217544 21.67° C 63% 1016.7 hPa - - - -
1788216644 21.67° C 64% 1016.7 hPa - - - -
1788215744 21.67° C 63% 1016.8 hPa - - - -
1788214843 21.11° C 67% 1016.8 hPa - - - -
1788213943 20° C 73% 1016.9 hPa - - - -
1788213043 20° C 78% 1016.8 hPa - - - -
1788212143 20.56° C 74% 1016.4 hPa - - - -
1788211243 20.56° C 71% 1016.3 hPa - - - -
1788210343 20.56° C 71% 1016.1 hPa - - - -
1788209442 20.56° C 72% 1015.6 hPa - - - -
1788208542 20.56° C 71% 1015.3 hPa - - - -
1788207642 20.56° C 70% 1015 hPa - - - -
1788206742 20.56° C 70% 1014.7 hPa - - - -

* Rain since midnight (hover to see other rain measurements)
** Current wind speed in m/s (hover to see current wind gust speed)